EW7508 Weather Reports


time (UTC)temp
F
wind
direction
speed
knots
gust
knots
rain 1hr
in
rain 24hr
in
rain mn
in
humidity
%
barometer
mb
20260508083007 47 344 0.9 3.5 0.00 0.00 0.00 48 1026.1
20260508081501 46 334 1.7 2.6 0.00 0.00 0.00 60 1026.0
20260508080101 46 334 0.0 2.6 0.00 0.00 0.00 62 1025.9
20260508074557 46 334 0.0 1.7 0.00 0.00 0.00 60 1025.7
20260508073104 46 334 0.0 2.6 0.00 0.00 0.00 62 1025.6
20260508071600 46 334 0.0 1.7 0.00 0.00 0.00 62 1025.5
20260508070050 45 334 0.9 1.7 0.00 0.00 0.00 66 1025.4
20260508064546 44 334 0.0 2.6 0.00 0.00 0.00 68 1025.2
20260508063042 44 325 3.5 5.2 0.00 0.00 0.00 73 1025.0
20260508061539 43 333 1.7 4.3 0.00 0.00 0.00 75 1024.8
20260508060036 43 331 2.6 5.2 0.00 0.00 0.00 75 1024.7
20260508054531 42 338 2.6 6.1 0.00 0.00 0.00 78 1024.5
20260508053045 42 340 3.5 6.1 0.00 0.00 0.00 78 1024.2
20260508051526 41 345 2.6 6.1 0.00 0.00 0.00 79 1024.0
20260508050021 41 357 0.0 4.3 0.00 0.00 0.00 79 1023.8
20260508044519 40 357 0.9 2.6 0.00 0.00 0.00 80 1023.7
20260508043018 40 355 0.0 1.7 0.00 0.00 0.00 83 1023.5
20260508041519 40 355 0.9 3.5 0.00 0.00 0.00 83 1023.4
20260508040012 41 349 1.7 7.0 0.00 0.00 0.00 84 1023.2
20260508034510 41 345 3.5 7.0 0.00 0.00 0.00 84 1023.1
20260508033006 41 353 4.3 8.7 0.00 0.00 0.00 85 1023.0
20260508031504 40 352 2.6 6.1 0.00 0.00 0.00 87 1022.8
20260508030001 40 337 3.5 5.2 0.00 0.00 0.00 90 1022.6
20260508024607 40 326 2.6 5.2 0.00 0.00 0.00 91 1022.4
20260508023057 40 297 0.9 3.5 0.00 0.00 0.00 92 1022.2
20260508021556 39 340 0.9 4.3 0.00 0.00 0.00 92 1022.1
20260508020054 40 326 0.0 3.5 0.00 0.00 0.00 92 1022.1
20260508014551 40 330 1.7 7.8 0.00 0.00 0.00 93 1021.9
20260508013051 40 310 0.9 5.2 0.00 0.00 0.00 93 1021.8
20260508011554 39 337 3.5 9.6 0.00 0.00 0.00 93 1021.7
20260508010047 39 286 1.7 4.3 0.00 0.00 0.00 92 1021.6
20260508004544 39 285 1.7 4.3 0.00 0.00 0.00 92 1021.5
20260508003042 39 283 0.9 3.5 0.00 0.00 0.00 92 1021.4
20260508001542 39 242 0.0 4.3 0.00 0.00 0.00 91 1021.3
20260508000040 39 332 0.9 4.3 0.00 0.00 0.00 91 1021.2
20260507234537 39 285 0.9 3.5 0.00 0.00 0.00 91 1021.1
20260507233053 39 297 1.7 7.0 0.00 0.00 0.00 91 1020.8
20260507231536 39 259 2.6 6.1 0.00 0.00 0.00 91 1020.7
20260507230029 40 267 0.9 5.2 0.00 0.00 0.00 91 1020.7
20260507224531 40 337 0.9 5.2 0.00 0.00 0.00 90 1020.5
20260507223028 40 276 2.6 7.8 0.00 0.00 0.00 89 1020.4
20260507221524 40 259 1.7 4.3 0.00 0.00 0.00 89 1020.3
20260507220022 40 337 0.9 5.2 0.00 0.00 0.00 88 1020.2
20260507214518 40 324 1.7 6.1 0.00 0.00 0.00 88 1020.1
20260507213022 40 270 0.9 5.2 0.00 0.00 0.00 88 1020.0
20260507211514 40 300 0.9 6.1 0.00 0.00 0.00 88 1019.9
20260507210011 40 272 1.7 7.0 0.00 0.00 0.00 89 1019.7
20260507204514 40 297 1.7 6.1 0.00 0.00 0.00 88 1019.5
20260507203007 41 291 0.9 5.2 0.00 0.00 0.00 86 1019.3
20260507201512 41 258 3.5 8.7 0.00 0.00 0.00 85 1019.2
20260507200008 41 292 2.6 8.7 0.00 0.00 0.00 82 1018.9
20260507194621 41 278 2.6 6.1 0.00 0.00 0.00 82 1018.8
20260507193059 42 329 1.7 10.4 0.00 0.00 0.00 81 1018.6
20260507191557 42 325 5.2 13.0 0.00 0.00 0.00 81 1018.4
20260507190058 41 335 7.8 13.0 0.00 0.00 0.00 82 1018.3
20260507184557 42 344 7.0 10.4 0.00 0.00 0.00 84 1018.2
20260507183056 42 324 6.1 13.0 0.00 0.00 0.00 81 1018.2
20260507181558 42 326 10.4 16.5 0.00 0.00 0.00 79 1018.3
20260507180053 43 333 10.4 14.8 0.00 0.00 0.00 76 1018.2
20260507174558 43 325 8.7 13.0 0.00 0.00 0.00 76 1018.1
20260507173119 43 336 9.6 17.4 0.00 0.00 0.00 75 1017.8
20260507171554 44 318 3.5 7.0 0.00 0.00 0.00 75 1017.8
20260507170053 43 312 7.0 12.2 0.00 0.00 0.00 77 1017.6
20260507164549 44 333 6.1 12.2 0.00 0.00 0.00 76 1017.3
20260507163041 43 334 7.8 15.6 0.00 0.00 0.00 77 1017.3
20260507161556 43 304 9.6 14.8 0.00 0.00 0.00 74 1017.3
20260507160041 43 312 9.6 14.8 0.00 0.00 0.00 74 1017.2
20260507154541 43 340 9.6 15.6 0.00 0.00 0.00 75 1017.1
20260507153036 44 274 6.1 13.0 0.00 0.00 0.00 75 1017.0
20260507151534 44 337 7.8 15.6 0.00 0.00 0.00 76 1016.9
20260507150034 43 328 7.8 14.8 0.00 0.00 0.00 79 1016.9
20260507144534 42 340 8.7 14.8 0.00 0.00 0.00 82 1017.0
20260507143032 42 341 6.1 10.4 0.00 0.00 0.00 87 1017.0
20260507141530 41 351 7.0 11.3 0.00 0.00 0.00 86 1016.9
20260507140029 41 1 7.0 13.9 0.00 0.00 0.00 87 1016.9
20260507134528 41 357 9.6 13.9 0.00 0.00 0.00 86 1016.7
20260507133024 41 6 10.4 16.5 0.00 0.00 0.00 84 1016.5
20260507131529 41 349 5.2 13.9 0.00 0.00 0.00 84 1016.5
20260507130025 41 355 7.0 11.3 0.00 0.00 0.00 82 1016.4
20260507124520 40 4 7.0 10.4 0.00 0.00 0.00 85 1016.2
20260507123016 41 349 6.1 10.4 0.00 0.00 0.00 84 1016.1
20260507121515 43 8 6.1 12.2 0.00 0.00 0.00 79 1015.9
20260507120034 43 355 2.6 6.1 0.00 0.00 0.00 75 1015.5
20260507114510 43 27 1.7 9.6 0.00 0.00 0.00 81 1015.3
20260507113033 43 346 6.1 12.2 0.00 0.00 0.00 80 1015.3
20260507111510 44 353 5.2 7.8 0.00 0.00 0.00 75 1015.3
20260507110011 46 6 3.5 11.3 0.00 0.00 0.00 73 1015.2
20260507104503 46 259 2.6 10.4 0.00 0.00 0.00 73 1015.0
20260507103001 45 274 3.5 7.8 0.00 0.00 0.00 74 1015.1
20260507101604 44 286 3.5 9.6 0.00 0.00 0.00 73 1015.1
20260507100109 44 287 1.7 8.7 0.00 0.00 0.00 74 1015.1
20260507094601 43 313 3.5 7.0 0.00 0.00 0.00 71 1015.2
20260507093058 43 36 0.9 3.5 0.00 0.00 0.00 74 1015.1
20260507091557 42 36 0.9 3.5 0.00 0.00 0.00 79 1015.1
20260507090056 42 26 1.7 7.0 0.00 0.00 0.00 77 1015.2
20260507084601 45 15 3.5 7.8 0.00 0.00 0.00 66 1015.2